Preview of NWS' New Version of Forecast
This preview is not operational and should not be used for support decisions.
Latest weather observations around

Haleyville, Posey Field Airport (K1M4)

Using English Units (Switch to International System of Units)
Date/ Time (CDT) Wind (mph) Vis. (mi) Weather Sky Cond. Temp (°F) Rel. Humidity Wind Chill (°F) Heat Index (°F) Pressure Precip. (in)
Air Dwpt 6 hour Altimeter (inHg) Sea level (inHg) 1 hr 3 hr 6 hr
Max Min
Apr 19 17:56 N 7 10 Clear CLR 55 33     43%     30.25 30.33      
Apr 19 16:56 N 11 10 Clear CLR 56 35     45%     30.25 30.32      
Apr 19 15:56 NNE 10 10 Clear CLR 56 35     45%     30.25 30.32      
Apr 19 14:56 N 10 10 Mostly Clear FEW048 55 35     47%     30.26 30.32      
Apr 19 13:56 NNW 11 10 Mostly Clear FEW044 54 36     50%     30.27 30.33      
Apr 19 12:56 N 10 10 Partly Cloudy SCT044 53 35     50%     30.26 30.32      
Apr 19 11:56 N 10 10 Partly Cloudy SCT040 53 36     52%     30.26 30.31      
Apr 19 10:56 NNE 9 10 Mostly Cloudy BKN038 52 35     52%     30.24 30.29      
Apr 19 09:56 N 9 10 Mostly Cloudy BKN034 51 37     59%     30.21 30.27      
Apr 19 08:56 N 10 10 Clear CLR 48 35     61% 43   30.19 30.25      
Apr 19 07:56 N 13 10 Clear CLR 47 37     68% 41   30.16 30.22      
Apr 19 06:56 NNW 10 10 Clear CLR 47 36     65% 42   30.14 30.19      
Apr 19 05:56 N 10 10 Clear CLR 48 36     63% 43   30.1 30.16      
Apr 19 04:56 N 15 10 Clear CLR 51 39     63%     30.07 30.12      
Apr 19 03:56 NNW 8 10 Clear CLR 54 40     59%     30.05 30.09      
Apr 19 02:56 NNW 8 10 Clear CLR 56 42     60%     30.02 30.06      
Apr 19 01:56 NW 10 10 Mostly Clear FEW070 60 43     53%     30.01 30.05      
Notice The following observation data may not be complete
Apr 19 01:10   10 Partly Cloudy FEW024 SCT050          %              
Notice The following observation data may not be complete
Apr 19 00:35   10 Cloudy BKN021 BKN027 OVC045          %              
Apr 18 23:56 WSW 8 10 Cloudy FEW035 SCT043 OVC070 65 62     90%     29.98 30.02      
Apr 18 22:56 SW 7 10 Partly Cloudy FEW047 SCT060 64 61     90%     29.99 30.02      
Apr 18 21:56 SW 10 10 Clear CLR 65 61     87%     29.98 30.02      
Apr 18 20:56 SW 8 10 Clear CLR 66 61     84%     29.98 30.02      
Apr 18 19:56 SW 10 10 Clear CLR 67 60     79%     29.96 30      
Apr 18 18:56 WSW 13 10 Cloudy OVC048 70 60     71%     29.96 30.01      
Apr 18 17:56 WSW 13 10 Cloudy OVC043 70 60     71%     29.95 30      
Apr 18 16:56 WSW 8 10 Cloudy OVC045 72 60     66%   72 29.95 29.99      
Apr 18 15:56 W 11 10 Cloudy OVC041 73 59     61%   73 29.94 29.97      
Apr 18 14:56 WSW 16 10 Mostly Cloudy BKN039 75 59     57%   75 29.94 29.97      
Apr 18 13:56 WSW 16 10 Mostly Cloudy BKN039 74 58     57%   74 29.95 29.98      
Apr 18 12:56 SW 13 10 Cloudy OVC035 73 58     59%   73 29.96 29.99      
Apr 18 11:56 SW 14 10 Partly Cloudy SCT033 71 57     61%   71 29.98 30.01      
Apr 18 10:56 SW 15 10 Clear CLR 68 56     65%     29.98 30.02      
Apr 18 09:56 SW 17 10 Clear CLR 65 55     70%     29.98 30.02      
Apr 18 09:40 SW 22 10 Mostly Clear and Windy FEW017 63 55     77%     29.98        
Apr 18 09:22 SW 17 10 Mostly Cloudy BKN015 64 55     73%     29.98        
Apr 18 08:56 WSW 16 10 Cloudy OVC013 60 55     83%     29.99 30.04      
Apr 18 08:40 SW 14 10 Cloudy OVC013 59 55     88%     30        
Apr 18 07:56 SSW 15 10 Mostly Cloudy BKN019 58 54     87%     29.98 30.02      
Apr 18 06:56 SSW 10 10 Clear CLR 56 52     87%     29.96 30      
Apr 18 05:56 SSW 13 10 Clear CLR 55 51     86%     29.94 29.98      
Apr 18 04:56 SSW 13 10 Clear CLR 56 49     77%     29.92 29.96      
Apr 18 03:56 SSW 9 10 Clear CLR 58 48     70%     29.92 29.95      
Apr 18 02:56 SW 9 10 Clear CLR 60 47     62%     29.92 29.95      
Apr 18 01:56 SSW 14 10 Clear CLR 62 46     56%     29.91 29.94      
Apr 18 00:56 SW 13 10 Clear CLR 63 46     54%     29.91 29.95      
Apr 17 23:56 SW 15 10 Clear CLR 65 45     48%     29.91 29.94      
Apr 17 22:56 SSW 11 10 Clear CLR 65 46     50%     29.92 29.96      
Apr 17 21:56 SSW 10 10 Clear CLR 65 46     50%     29.93 29.98      
Apr 17 20:56 SSW 8 10 Clear CLR 64 45     50%     29.93 29.98      
Apr 17 19:56 SSW 8 10 Clear CLR 68 45     43%     29.93 29.99      
Apr 17 18:56 SSW 10 10 Clear CLR 73 44     35%   72 29.93 30      
Apr 17 17:56 SSW 11 10 Clear CLR 75 44     33%   74 29.94 30      
Apr 17 16:56 SW 9 10 Clear CLR 77 45     32%   76 29.95 30.01      
Apr 17 15:56 WSW 16 10 Clear CLR 77 45     32%   76 29.96 30.02      
Apr 17 14:56 SW 11 10 Clear CLR 76 45     33%   75 29.99 30.06      
Apr 17 13:56 SW 11 10 Clear CLR 74 40     29%   72 30.02 30.08      
Apr 17 12:56 SW 9 10 Clear CLR 71 42     35%   70 30.04 30.11      
Apr 17 11:56 WSW 8 10 Clear CLR 68 44     42%     30.07 30.14      
Apr 17 10:56 SW 10 10 Clear CLR 64 46     52%     30.09 30.16      
Apr 17 09:56 WSW 8 10 Clear CLR 59 43     55%     30.11 30.18      
Apr 17 08:56 SSW 10 10 Clear CLR 54 40     59%     30.12 30.19      
Apr 17 07:56 SSW 5 10 Clear CLR 47 41     80% 45   30.12 30.19      
Apr 17 06:56 Calm 10 Clear CLR 33 33     100%     30.12 30.19      
Apr 17 05:56 Calm 10 Clear CLR 33 33     100%     30.1 30.17      
Apr 17 04:56 Calm 10 Clear CLR 33 33     100%     30.1 30.17      
Apr 17 03:56 Calm 10 Clear CLR 34 34     100%     30.1 30.18      
Apr 17 02:56 Calm 10 Clear CLR 34 34     100%     30.11 30.17      
Apr 17 01:56 Calm 10 Clear CLR 35 35     100%     30.11 30.18      
Apr 17 00:56 Calm 10 Clear CLR 36 35     96%     30.11 30.18      
Apr 16 23:56 Calm 10 Clear CLR 37 36     96%     30.11 30.19      
Apr 16 22:56 Calm 10 Clear CLR 38 37     97%     30.12 30.2      
Apr 16 21:56 Calm 10 Clear CLR 40 38     93%     30.13 30.2      
Apr 16 20:56 Calm 10 Clear CLR 42 37     82%     30.12 30.2      
Apr 16 19:56 Calm 10 Clear CLR 48 33     56%     30.11 30.18      
Apr 16 18:56 5 10 Clear CLR 51 32     48%     30.1 30.16      
Jun 12 02:56 S 5 10 Clear CLR 72 69     91%   73 30.14 30.15      
Jun 11 11:56 SSW 10 10 Partly Cloudy SCT075 85 70     61%   89 30.18 30.19      
Jun 10 23:56 ESE 3 10 Clear CLR 66 63     90%       30.14      
Jun 10 12:56 6 10 Partly Cloudy SCT055 83 60     46%   83 30.11 30.14      
Jun 09 04:56 Calm 8 Clear CLR 54 53     97%     29.96 30      
Jun 08 23:56 N 3 10 Clear CLR 60 56     86%     29.97 30.01      
Jun 06 12:56 Calm 10 Mostly Cloudy BKN085 BKN110 71 69     93%   72 29.85 29.87 0   0
Jun 06 00:48 Calm 3 Fog/Mist FEW120 70 70     100%     29.85   0    
Jun 05 22:37 S 5 10 Mostly Cloudy BKN005 72 70     94%   73 29.85        
Notice The following observation data may not be complete
Jun 05 20:09   10 Partly Cloudy FEW015 SCT025          %